This is the latest recevied weather packets stored in our database for station/object AJ4FJ-13. If no packets are shown the sender has not sent any weather packets the latest 10 day(s).
| Time | Temp. | Humidity | Pressure | Rain* | Wind** | Luminosity | Snow |
|---|---|---|---|---|---|---|---|
| 1777633856 | 9.44° C | 94% | 1012 hPa | 0 mm | 0 m/s | - | - |
| 1777619988 | 12.22° C | 92% | 1012 hPa | 0 mm | 0 m/s | - | - |
| 1777619687 | 12.22° C | 91% | 1012 hPa | 0 mm | 0 m/s | - | - |
| 1777609133 | 12.78° C | 93% | 1012 hPa | 0 mm | 0 m/s | - | - |
| 1777607324 | 12.22° C | 92% | 1013 hPa | 0 mm | 0 m/s | - | - |
| 1777607022 | 12.22° C | 91% | 1013 hPa | 0 mm | 0 m/s | - | - |
| 1777605817 | 12.78° C | 91% | 1013 hPa | 0 mm | 0 m/s | - | - |
| 1777603402 | 12.78° C | 89% | 1013 hPa | 0 mm | 0 m/s | - | - |
| 1777601291 | 13.33° C | 83% | 1013 hPa | 0 mm | 0 m/s | - | - |
| 1777599782 | 13.89° C | 80% | 1013 hPa | 0 mm | 0 m/s | - | - |
| 1777599180 | 14.44° C | 79% | 1013 hPa | 0 mm | 0 m/s | - | - |
| 1777595559 | 16.67° C | 68% | 1013 hPa | 0 mm | 0 m/s | - | - |
| 1777589517 | 21.11° C | 43% | 1013 hPa | 0 mm | 1.34 m/s, 27° | - | - |
| 1777587682 | 22.22° C | 40% | 1013 hPa | 0 mm | 1.79 m/s, 4° | - | - |
| 1777585242 | 23.33° C | 40% | 1013 hPa | 0 mm | 2.24 m/s, 40° | - | - |
| 1777583672 | 22.78° C | 41% | 1013 hPa | 0 mm | 2.68 m/s, 37° | - | - |
| 1777583421 | 22.78° C | 41% | 1013 hPa | 0 mm | 2.68 m/s, 37° | - | - |
| 1777581599 | 23.33° C | 41% | 1014 hPa | 0 mm | 3.13 m/s, 351° | - | - |
| 1777581066 | 23.33° C | 42% | 1013 hPa | 0 mm | 2.24 m/s, 314° | - | - |
| 1777580990 | 23.33° C | 42% | 1013 hPa | 0 mm | 2.24 m/s, 314° | - | - |
| 1777580386 | 23.33° C | 43% | 1013 hPa | 0 mm | 2.24 m/s, 356° | - | - |
| 1777580137 | 23.33° C | 41% | 1014 hPa | 0 mm | 1.79 m/s, 7° | - | - |
| 1777580084 | 23.33° C | 41% | 1014 hPa | 0 mm | 1.79 m/s, 7° | - | - |
| 1777579778 | 22.78° C | 41% | 1014 hPa | 0 mm | 2.24 m/s, 24° | - | - |
| 1777579475 | 23.33° C | 42% | 1014 hPa | 0 mm | 3.13 m/s, 351° | - | - |
* Rain latest hour (hover to see other rain measurements)
** Current wind speed in m/s (hover to see current wind gust speed)